[[{"header":{"parameterUnit":"m.s-1","parameterCategory":2,"la1":30.2991,"la2":30.254,"lo1":-89.0895,"lo2":-89.0444,"dy":0.0017,"dx":0.0017,"nx":28,"ny":28,"refTime":"2024-07-04T09:00:00:Z","depth":"0","parameterNumber":2,"parameterNumberName":"U-component_of_CURRENTS"},"data":[0,0,0,0,0,0,0,0,0,0,0,0,0,0,0,0,0,0,0,0,0,0,0,0,0,0,0,0,0,0,0,0,0,0,0,0,0,0,0,0,0,0,0,0,0,0,0,0,0,0,0,0,0,0,0,0,0,0,0.2089,0.2089,0,0.2079,0.2079,0.2079,0.2058,0.2057,0.2057,0.2057,0.2044,0.2043,0.2043,0,0,0,0,0,0,0,0,0,0,0,0,0,0.2105,0.2105,0.2089,0.2089,0.2089,0.2079,0.2079,0.2079,0.2058,0.2057,0.2057,0.2057,0.2044,0.2044,0.2043,0,0,0,0,0,0,0,0,0,0,0,0,0,0.2096,0.2105,0.2089,0.2078,0.2077,0.2079,0.2079,0.2079,0.2058,0.2057,0.2057,0.2056,0.2044,0.2044,0.2043,0.2051,0,0,0.2043,0.2043,0,0,0,0,0,0,0,0,0.2096,0.2095,0.208,0.2079,0.2078,0.2071,0.208,0.207,0.2058,0.2063,0.2057,0.2056,0.2054,0.2053,0.205,0.2051,0.205,0.2043,0.2043,0.2043,0.2043,0,0,0,0,0,0,0,0.2097,0.2095,0.2083,0.208,0.2079,0.208,0.2078,0.2078,0.206,0.2063,0.2062,0.2063,0.2053,0.205,0.2049,0.205,0.2043,0.2043,0.2043,0.2043,0.208,0.2081,0,0,0,0,0,0,0.2101,0.2096,0.2084,0.2083,0.2088,0.208,0.2078,0.2072,0.206,0.2058,0.2064,0.2062,0.205,0.2049,0.2049,0.2063,0.2043,0.2043,0.2043,0.2079,0.208,0.2081,0,0,0,0,0,0,0.2101,0.21,0.2084,0.2091,0.2089,0.208,0.2074,0.2072,0.2071,0.2061,0.2058,0.2065,0.205,0.2049,0.2056,0.2062,0.2043,0.2043,0.2077,0.2079,0.208,0.2088,0,0,0,0,0,0,0.2102,0.21,0.2099,0.2091,0.2089,0.2092,0.2075,0.2072,0.2073,0.2072,0.2062,0.206,0.2049,0.2057,0.2056,0.2062,0.2043,0.2076,0.2078,0.208,0.2087,0.209,0.2093,0,0,0,0,0,0.2102,0.2105,0.2098,0.2097,0.2087,0.2093,0.2092,0.2083,0.2074,0.2079,0.2073,0.206,0.2069,0.2057,0.2057,0.2062,0.2075,0.2077,0.208,0.2085,0.2089,0.2093,0,0,0,0,0,0,0.2112,0.2103,0.2096,0.2095,0.2097,0.209,0.2093,0.2088,0.2087,0.2083,0.207,0.2069,0.2086,0.2076,0.2063,0.2082,0.2071,0.2074,0.2076,0.208,0.2083,0.21,0.2042,0,0,0,0,0,0.2114,0.211,0.2107,0.2107,0.2108,0.2102,0.2103,0.2098,0.2096,0.2094,0.2087,0.2085,0.2096,0.2088,0.21,0.2099,0.2126,0.2105,0.2108,0.211,0.2126,0.2196,0.2207,0.2089,0.2089,0.2089,0,0,0.2117,0.2112,0.211,0.2109,0.2106,0.2106,0.2101,0.2106,0.2103,0.2094,0.209,0.2103,0.2104,0.2113,0.2117,0.2099,0.2154,0.2113,0.2115,0.213,0.22,0.2212,0.2222,0.209,0.209,0.209,0,0,0.2117,0.2118,0.2111,0.2114,0.2116,0.2116,0.212,0.2117,0.2116,0.212,0.2121,0.2144,0.2134,0.2146,0.2148,0.2177,0.2182,0.2169,0.2178,0.2245,0.2256,0.2265,0.2292,0.2304,0.2153,0.2153,0.2153,0,0.2121,0.2106,0.2114,0.211,0.2109,0.212,0.2114,0.212,0.2121,0.2127,0.2121,0.2155,0.2157,0.2182,0.2189,0.2185,0.2209,0.2158,0.225,0.226,0.227,0.2295,0.2308,0.2153,0.2153,0.2153,0.2153,0,0.2109,0.2102,0.2103,0.2095,0.2103,0.2104,0.2113,0.2123,0.2125,0.2133,0.217,0.2188,0.2209,0.2211,0.2202,0.2264,0.2253,0.2259,0.2239,0.2282,0.2305,0.2319,0.2154,0.2154,0.2154,0.2154,0,0,0.2099,0.2093,0.209,0.2083,0.2092,0.2096,0.2107,0.2121,0.2139,0.2156,0.2188,0.2215,0.2241,0.2249,0.2255,0.2301,0.2381,0.23,0.2303,0.2323,0.2504,0.231,0.2306,0.2401,0.2404,0.2406,0.2483,0,0.2081,0.2063,0.2069,0.2059,0.2051,0.2073,0.2087,0.211,0.2135,0.2177,0.2218,0.2261,0.2248,0.2273,0.2319,0.2381,0.2421,0.2358,0.2462,0.2465,0.2286,0.2318,0.2148,0.2187,0.2496,0.2499,0.25,0,0.2054,0.2047,0.2029,0.2037,0.2039,0.2044,0.2078,0.2093,0.216,0.2189,0.2243,0.2287,0.2359,0.2356,0.2471,0.2429,0.247,0.251,0.2514,0.2344,0.2297,0.22,0.22,0.2141,0.2521,0.252,0.2518,0,0.2023,0.2017,0.2,0.1999,0.2018,0.2024,0.2042,0.2095,0.2128,0.2212,0.2265,0.2342,0.2404,0.2479,0.253,0.2522,0.2654,0.2655,0.2518,0.2504,0.2386,0.2354,0.234,0.2755,0.2754,0.2754,0.2754,0,0.1992,0.1979,0.1986,0.1976,0.1982,0.2004,0.2033,0.2069,0.2147,0.2209,0.2276,0.2346,0.2447,0.2517,0.256,0.2553,0.2677,0.2527,0.2517,0.2376,0.2344,0.2306,0.2284,0.2757,0.2756,0.2756,0.2755,0,0.1958,0.1956,0.1942,0.1956,0.1963,0.1969,0.2023,0.2061,0.2134,0.2225,0.2263,0.2378,0.245,0.2505,0.2625,0.257,0.2499,0.2573,0.2364,0.2324,0.2078,0.2061,0.1951,0.1918,0.2432,0.2427,0.2424,0,0.194,0.1925,0.1925,0.1929,0.1935,0.1953,0.1983,0.2046,0.2099,0.2239,0.2294,0.2384,0.2432,0.2472,0.2398,0.2385,0.2374,0.22,0.2143,0.2031,0.2011,0.1949,0.193,0.2004,0.1998,0.1992,0.1988,0,0.1917,0.1913,0.191,0.1912,0.1929,0.1945,0.1992,0.2028,0.2127,0.2203,0.2298,0.2344,0.233,0.2211,0.2128,0.2098,0.2027,0.2078,0.2061,0.1735,0.158,0.1553,0.1972,0.1938,0.1943,0.1947,0.195,0.1952,0.191,0.1903,0.1902,0.1896,0.1916,0.1933,0.193,0.1995,0.2054,0.2117,0.2216,0.2184,0.2057,0.1892,0.1845,0.1583,0.1677,0.1501,0.1513,0.148,0.1357,0.1612,0.1491,0.1493,0.1495,0.1497,0.1499,0,0.1892,0.1887,0.1892,0.1879,0.1874,0.1895,0.1935,0.1917,0.1946,0.1966,0.1993,0.1793,0.1617,0.1489,0.1207,0.1068,0.1054,0.1016,0.0961,0.0996,0.1315,0.1203,0.0893,0.0893,0.0893,0.0893,0.0893,0.0893,0.1887,0.1871,0.186,0.1829,0.1823,0.1792,0.179,0.1771,0.1749,0.1624,0.1475,0.1417,0.1269,0.0984,0.0759,0.072,0.0708,0.0548,0.0675,0.0948,0.0998,0.1045,0.0936,0.0576,0.0575,0.0302,0.03,0.0298]},{"header":{"parameterUnit":"m.s-1","parameterCategory":2,"la1":30.2991,"la2":30.254,"lo1":-89.0895,"lo2":-89.0444,"dy":0.0017,"dx":0.0017,"nx":28,"ny":28,"refTime":"2024-07-04T09:00:00:Z","depth":"0","parameterNumber":3,"parameterNumberName":"V-component_of_CURRENTS"},"data":[0,0,0,0,0,0,0,0,0,0,0,0,0,0,0,0,0,0,0,0,0,0,0,0,0,0,0,0,0,0,0,0,0,0,0,0,0,0,0,0,0,0,0,0,0,0,0,0,0,0,0,0,0,0,0,0,0,0,0.0374,0.0374,0,0.0394,0.0394,0.0394,0.0392,0.0392,0.0392,0.0391,0.0391,0.0391,0.0392,0,0,0,0,0,0,0,0,0,0,0,0,0,0.0323,0.0324,0.0374,0.0374,0.0375,0.0394,0.0394,0.0394,0.0392,0.0392,0.0392,0.0391,0.0391,0.0391,0.0392,0,0,0,0,0,0,0,0,0,0,0,0,0,0.0343,0.0324,0.0374,0.0377,0.0377,0.0394,0.0394,0.0394,0.0392,0.0392,0.0391,0.0391,0.0391,0.0391,0.0392,0.0399,0,0,0.0392,0.0393,0,0,0,0,0,0,0,0,0.0342,0.0345,0.0376,0.0377,0.0377,0.0391,0.0376,0.0396,0.0392,0.0385,0.0391,0.0391,0.039,0.0391,0.0394,0.0399,0.0399,0.0392,0.0393,0.0393,0.0393,0,0,0,0,0,0,0,0.0341,0.0344,0.0381,0.0376,0.0377,0.0374,0.0376,0.038,0.0388,0.0386,0.0386,0.039,0.039,0.0393,0.0394,0.0399,0.0392,0.0393,0.0393,0.0393,0.042,0.042,0,0,0,0,0,0,0.0342,0.0343,0.038,0.0381,0.036,0.0375,0.0378,0.0386,0.0388,0.0389,0.0391,0.039,0.0393,0.0393,0.0394,0.0416,0.0393,0.0393,0.0393,0.0419,0.042,0.042,0,0,0,0,0,0,0.0341,0.0345,0.0379,0.0363,0.0367,0.0376,0.0386,0.0387,0.0391,0.0392,0.0392,0.0394,0.0393,0.0393,0.0402,0.0415,0.0393,0.0393,0.0418,0.0419,0.042,0.0452,0,0,0,0,0,0,0.0339,0.0345,0.0349,0.0363,0.0368,0.0393,0.0386,0.0387,0.0394,0.0394,0.0395,0.0395,0.0393,0.0402,0.0402,0.0415,0.0394,0.0418,0.0419,0.042,0.045,0.0454,0.0457,0,0,0,0,0,0.0337,0.0348,0.035,0.0354,0.0375,0.0394,0.0396,0.04,0.0395,0.0401,0.0402,0.0395,0.0408,0.0403,0.0403,0.0416,0.0417,0.0418,0.042,0.0449,0.0453,0.0457,0,0,0,0,0,0,0.0325,0.035,0.0351,0.0368,0.0381,0.0394,0.0401,0.0402,0.0408,0.0406,0.0403,0.0403,0.0417,0.0411,0.0405,0.0426,0.0411,0.0413,0.0433,0.0437,0.044,0.045,0.0394,0,0,0,0,0,0.0326,0.0343,0.036,0.0373,0.038,0.039,0.0396,0.0401,0.0409,0.0411,0.0413,0.0415,0.0422,0.0425,0.043,0.0441,0.0443,0.045,0.0453,0.0456,0.0464,0.0483,0.0489,0.0424,0.0424,0.0424,0,0,0.0324,0.034,0.0348,0.0372,0.0381,0.04,0.0393,0.0408,0.0423,0.0411,0.0428,0.0428,0.0428,0.0444,0.0449,0.044,0.0474,0.0457,0.046,0.0467,0.0485,0.0491,0.0497,0.0425,0.0425,0.0425,0,0,0.0334,0.0344,0.0362,0.0376,0.0397,0.0407,0.0412,0.0428,0.0434,0.0451,0.0447,0.0457,0.0463,0.0472,0.0475,0.0499,0.0491,0.0495,0.052,0.0538,0.0544,0.0549,0.0553,0.0559,0.0496,0.0496,0.0496,0,0.033,0.0357,0.0368,0.039,0.0406,0.0411,0.0434,0.0443,0.046,0.0471,0.046,0.0484,0.048,0.0507,0.0513,0.0508,0.0511,0.0505,0.0543,0.0548,0.0553,0.0556,0.0562,0.0497,0.0497,0.0497,0.0497,0,0.0356,0.0376,0.0388,0.042,0.0437,0.0457,0.0475,0.0489,0.0495,0.0505,0.053,0.0529,0.0546,0.0543,0.0534,0.0566,0.0554,0.0547,0.0534,0.0562,0.0563,0.0568,0.05,0.0499,0.0499,0.0498,0,0,0.0356,0.0398,0.0403,0.0426,0.0456,0.0477,0.0502,0.0532,0.0557,0.0563,0.0598,0.0601,0.0601,0.0605,0.0598,0.0608,0.0635,0.059,0.059,0.0597,0.0668,0.0649,0.0652,0.0634,0.0635,0.0636,0.0654,0,0.0375,0.0419,0.0436,0.0481,0.0507,0.0524,0.0551,0.0576,0.0594,0.0628,0.063,0.0659,0.0625,0.0639,0.0644,0.0644,0.0651,0.0631,0.0639,0.0639,0.0621,0.0658,0.0679,0.0696,0.0659,0.0659,0.066,0,0.0398,0.0428,0.0472,0.0522,0.0536,0.0561,0.0613,0.0639,0.0678,0.0692,0.0715,0.072,0.0742,0.071,0.072,0.0708,0.0691,0.0682,0.0683,0.0659,0.063,0.0664,0.0706,0.0729,0.0668,0.0667,0.0666,0,0.0406,0.0457,0.0494,0.0511,0.0564,0.0588,0.0617,0.0658,0.0695,0.0741,0.0779,0.0789,0.0819,0.0797,0.077,0.0752,0.0778,0.0751,0.0716,0.0714,0.0731,0.0729,0.08,0.0761,0.0761,0.0761,0.0761,0,0.0428,0.0459,0.0502,0.0525,0.0578,0.0606,0.0666,0.0694,0.0749,0.0817,0.0816,0.0878,0.0845,0.0854,0.0804,0.078,0.0806,0.0733,0.0726,0.0741,0.0739,0.0757,0.0755,0.0762,0.0761,0.0761,0.0761,0,0.0435,0.046,0.0509,0.0564,0.0585,0.0623,0.07,0.0749,0.0793,0.0886,0.091,0.0958,0.0976,0.0926,0.0906,0.0842,0.0821,0.0788,0.0799,0.0792,0.0763,0.0761,0.0801,0.0843,0.0755,0.0754,0.0754,0,0.0445,0.0469,0.0534,0.057,0.0598,0.0659,0.071,0.0765,0.0828,0.0948,0.1004,0.105,0.1105,0.1051,0.0947,0.0859,0.0851,0.0806,0.077,0.078,0.0773,0.0764,0.0797,0.0804,0.0804,0.0804,0.0805,0,0.0464,0.0482,0.0522,0.0593,0.0651,0.0721,0.08,0.0857,0.0948,0.1045,0.1172,0.1226,0.1185,0.1129,0.0991,0.0917,0.0839,0.0805,0.083,0.0834,0.0818,0.0849,0.0762,0.0806,0.0806,0.0806,0.0806,0.0806,0.0476,0.0503,0.0555,0.0623,0.0691,0.0781,0.0849,0.0956,0.108,0.1241,0.128,0.1373,0.1283,0.111,0.102,0.087,0.0867,0.0827,0.0827,0.082,0.0857,0.0761,0.0784,0.0784,0.0783,0.0783,0.0783,0,0.0489,0.0524,0.0587,0.0669,0.0743,0.0781,0.0911,0.1,0.1165,0.131,0.1429,0.1424,0.1329,0.1182,0.0982,0.0914,0.0898,0.0882,0.0898,0.0935,0.0869,0.0869,0.0895,0.0895,0.0895,0.0895,0.0895,0.0895,0.0499,0.0548,0.058,0.0693,0.0758,0.0867,0.0944,0.1102,0.1224,0.1409,0.1466,0.1497,0.1415,0.1137,0.1005,0.0968,0.0996,0.0945,0.0976,0.0942,0.0937,0.0933,0.0934,0.0974,0.0974,0.1069,0.107,0.107]}],[{"header":{"parameterUnit":"m.s-1","parameterCategory":2,"la1":30.2991,"la2":30.254,"lo1":-89.0895,"lo2":-89.0444,"dy":0.0017,"dx":0.0017,"nx":28,"ny":28,"refTime":"2024-07-04T09:00:00:Z","depth":"2","parameterNumber":2,"parameterNumberName":"U-component_of_CURRENTS"},"data":[0,0,0,0,0,0,0,0,0,0,0,0,0,0,0,0,0,0,0,0,0,0,0,0,0,0,0,0,0,0,0,0,0,0,0,0,0,0,0,0,0,0,0,0,0,0,0,0,0,0,0,0,0,0,0,0,0,0,0.1686,0.1686,0,0.1698,0.1699,0.1699,0.17,0.17,0.17,0.1699,0.1697,0.1697,0.1697,0,0,0,0,0,0,0,0,0,0,0,0,0,0.1705,0.1705,0.1686,0.1686,0.1686,0.1698,0.1699,0.1699,0.17,0.17,0.17,0.1699,0.1697,0.1697,0.1697,0,0,0,0,0,0,0,0,0,0,0,0,0,0.1707,0.1705,0.1686,0.1686,0.1686,0.1698,0.1699,0.1699,0.1701,0.17,0.17,0.1699,0.1696,0.1697,0.1697,0.1709,0,0,0.1698,0.1698,0,0,0,0,0,0,0,0,0.1707,0.1707,0.1686,0.1686,0.1686,0.1695,0.1705,0.1701,0.1701,0.1697,0.1699,0.1699,0.1694,0.1694,0.1701,0.1709,0.1709,0.1698,0.1698,0.1699,0.1699,0,0,0,0,0,0,0,0.1707,0.1707,0.1693,0.1686,0.1686,0.17,0.17,0.1704,0.17,0.1698,0.1697,0.1695,0.1694,0.1701,0.1701,0.1709,0.1698,0.1699,0.1699,0.1699,0.1741,0.1742,0,0,0,0,0,0,0.1699,0.1706,0.1692,0.1693,0.1693,0.17,0.17,0.1695,0.17,0.17,0.1696,0.1695,0.17,0.1701,0.1701,0.1724,0.1699,0.1699,0.1699,0.174,0.1741,0.1742,0,0,0,0,0,0,0.17,0.1698,0.1692,0.1698,0.1698,0.17,0.1694,0.1695,0.1706,0.1698,0.1698,0.1706,0.17,0.17,0.1701,0.1724,0.1699,0.1699,0.1739,0.1741,0.1742,0.1765,0,0,0,0,0,0,0.17,0.1698,0.1701,0.1698,0.1698,0.1703,0.1695,0.1696,0.1704,0.1704,0.1707,0.1706,0.17,0.1701,0.1702,0.1724,0.17,0.1738,0.174,0.1741,0.1763,0.1767,0.177,0,0,0,0,0,0.1701,0.1704,0.1701,0.1699,0.1698,0.1703,0.1705,0.1706,0.1705,0.1714,0.1708,0.1706,0.1713,0.1701,0.1702,0.1725,0.1737,0.1739,0.1741,0.1761,0.1766,0.177,0,0,0,0,0,0,0.1716,0.1705,0.17,0.1701,0.1703,0.1702,0.1712,0.1712,0.1717,0.1716,0.1709,0.1708,0.1731,0.1719,0.1707,0.1744,0.1729,0.1731,0.1744,0.1748,0.1752,0.1762,0.17,0,0,0,0,0,0.1719,0.1717,0.1711,0.1713,0.1714,0.1716,0.172,0.172,0.1719,0.1722,0.1725,0.1728,0.1742,0.1735,0.1752,0.1754,0.177,0.1773,0.1777,0.178,0.179,0.1842,0.1852,0.1749,0.1749,0.1749,0,0,0.1724,0.1718,0.1718,0.1716,0.1718,0.172,0.1718,0.1726,0.1729,0.172,0.1734,0.1752,0.1751,0.1767,0.1775,0.1754,0.1813,0.1782,0.1785,0.1793,0.1845,0.1855,0.1864,0.175,0.175,0.175,0,0,0.1728,0.173,0.1728,0.1729,0.173,0.1733,0.1736,0.1743,0.1749,0.1757,0.1766,0.1789,0.1793,0.1804,0.1806,0.1837,0.1847,0.1845,0.1852,0.1902,0.1912,0.192,0.1934,0.1944,0.1828,0.1828,0.1828,0,0.1736,0.1724,0.173,0.1727,0.1727,0.1738,0.1735,0.1747,0.1755,0.1765,0.1762,0.1809,0.1813,0.1837,0.185,0.1848,0.1866,0.1832,0.1908,0.1917,0.1925,0.1938,0.1948,0.1829,0.1829,0.1829,0.1829,0,0.1727,0.1725,0.1727,0.1722,0.173,0.1732,0.1741,0.1759,0.177,0.1782,0.1824,0.1839,0.1864,0.1875,0.1868,0.1928,0.1919,0.1923,0.1897,0.1936,0.1947,0.1957,0.1831,0.183,0.183,0.183,0,0,0.1722,0.1719,0.1719,0.1715,0.1724,0.1729,0.1745,0.1762,0.178,0.1807,0.184,0.1873,0.1901,0.1907,0.1919,0.1953,0.2022,0.1959,0.1961,0.1972,0.2116,0.1956,0.1951,0.2044,0.2046,0.2048,0.2094,0,0.171,0.1699,0.1704,0.1704,0.1699,0.1718,0.1735,0.1758,0.1784,0.1826,0.1862,0.1907,0.1905,0.1932,0.1969,0.2033,0.2053,0.2008,0.2077,0.2078,0.1931,0.1959,0.1781,0.1794,0.2103,0.2105,0.2106,0,0.1689,0.1686,0.1678,0.1689,0.1691,0.1701,0.1734,0.1751,0.1811,0.1836,0.1887,0.1928,0.2001,0.1994,0.2096,0.2071,0.2093,0.2123,0.2126,0.1978,0.1937,0.1809,0.1801,0.2123,0.2122,0.212,0.2119,0,0.1667,0.1667,0.166,0.166,0.1678,0.1691,0.1712,0.1759,0.1786,0.1861,0.1905,0.1978,0.2042,0.2098,0.2144,0.2142,0.2243,0.2245,0.211,0.2098,0.1958,0.1929,0.2303,0.2303,0.2303,0.2303,0.2302,0,0.1639,0.1636,0.1652,0.1646,0.1655,0.1681,0.1709,0.174,0.1807,0.1852,0.1921,0.1972,0.208,0.214,0.2168,0.2156,0.2258,0.2115,0.2104,0.1955,0.1927,0.2225,0.2215,0.2304,0.2304,0.2304,0.2303,0,0.161,0.1616,0.1612,0.1632,0.1641,0.1653,0.1705,0.1738,0.1801,0.1869,0.1906,0.2009,0.2075,0.2127,0.222,0.2171,0.2185,0.2143,0.1934,0.1894,0.2002,0.1993,0.2019,0.2014,0.201,0.2006,0.2003,0,0.1593,0.1586,0.1598,0.1603,0.1613,0.1639,0.1669,0.1729,0.1759,0.1875,0.1906,0.2,0.2017,0.2056,0.201,0.1986,0.2081,0.1781,0.173,0.1989,0.1976,0.1974,0.1972,0.1565,0.1558,0.1553,0.1549,0,0.1567,0.1574,0.1575,0.158,0.1604,0.1621,0.1658,0.1672,0.1753,0.1804,0.1859,0.1887,0.1896,0.1782,0.172,0.1681,0.1769,0.1667,0.2033,0.1636,0.1556,0.1545,0.1559,0.1502,0.1507,0.151,0.1513,0.1515,0.1558,0.1551,0.1556,0.1553,0.1584,0.1589,0.1575,0.1613,0.1639,0.1657,0.1734,0.1694,0.1675,0.148,0.1398,0.1317,0.1456,0.1379,0.1399,0.1423,0.1334,0.1248,0.1119,0.1121,0.1123,0.1125,0.1127,0,0.1531,0.1529,0.1529,0.1516,0.1517,0.1553,0.1559,0.1514,0.1498,0.1512,0.1506,0.1322,0.1195,0.118,0.0978,0.0916,0.0943,0.0864,0.0916,0.0961,0.1001,0.0894,0.0561,0.056,0.0559,0.0557,0,0,0.152,0.1499,0.1483,0.1448,0.1449,0.1418,0.1403,0.1345,0.1308,0.1219,0.1156,0.1181,0.1164,0.0897,0.0809,0.0667,0.0823,0.0614,0.1064,0.1175,0.1215,0.1283,0.1164,0,0,0,0,0]},{"header":{"parameterUnit":"m.s-1","parameterCategory":2,"la1":30.2991,"la2":30.254,"lo1":-89.0895,"lo2":-89.0444,"dy":0.0017,"dx":0.0017,"nx":28,"ny":28,"refTime":"2024-07-04T09:00:00:Z","depth":"2","parameterNumber":3,"parameterNumberName":"V-component_of_CURRENTS"},"data":[0,0,0,0,0,0,0,0,0,0,0,0,0,0,0,0,0,0,0,0,0,0,0,0,0,0,0,0,0,0,0,0,0,0,0,0,0,0,0,0,0,0,0,0,0,0,0,0,0,0,0,0,0,0,0,0,0,0,0.0172,0.0172,0,0.0192,0.0192,0.0193,0.0195,0.0195,0.0195,0.0195,0.0199,0.0199,0.02,0,0,0,0,0,0,0,0,0,0,0,0,0,0.0132,0.0133,0.0172,0.0172,0.0172,0.0192,0.0192,0.0193,0.0195,0.0195,0.0195,0.0195,0.0199,0.0199,0.02,0,0,0,0,0,0,0,0,0,0,0,0,0,0.015,0.0133,0.0172,0.0176,0.0177,0.0192,0.0192,0.0193,0.0195,0.0195,0.0195,0.0194,0.0199,0.0199,0.02,0.0209,0,0,0.0201,0.0201,0,0,0,0,0,0,0,0,0.0149,0.0152,0.0175,0.0176,0.0176,0.0191,0.018,0.0197,0.0195,0.0188,0.0195,0.0194,0.0195,0.0196,0.0201,0.0209,0.0209,0.0201,0.0201,0.0202,0.0202,0,0,0,0,0,0,0,0.0148,0.0151,0.018,0.0176,0.0176,0.0175,0.0178,0.0183,0.0193,0.0189,0.0189,0.0191,0.0195,0.02,0.0201,0.0209,0.0201,0.0202,0.0202,0.0202,0.0225,0.0226,0,0,0,0,0,0,0.0146,0.015,0.0179,0.0181,0.0162,0.0176,0.0179,0.0187,0.0193,0.0194,0.0192,0.0191,0.02,0.02,0.0201,0.0224,0.0202,0.0202,0.0202,0.0225,0.0226,0.0226,0,0,0,0,0,0,0.0145,0.0149,0.0179,0.0165,0.0169,0.0177,0.0186,0.0187,0.0193,0.0195,0.0196,0.0196,0.0199,0.02,0.0207,0.0224,0.0202,0.0203,0.0225,0.0225,0.0226,0.0263,0,0,0,0,0,0,0.0144,0.0148,0.0153,0.0165,0.017,0.0191,0.0186,0.0188,0.0195,0.0195,0.02,0.02,0.0199,0.0206,0.0207,0.0224,0.0203,0.0224,0.0225,0.0226,0.0262,0.0265,0.0268,0,0,0,0,0,0.0143,0.0153,0.0154,0.0157,0.0176,0.0191,0.0194,0.0198,0.0196,0.0202,0.0203,0.02,0.0211,0.0207,0.0208,0.0226,0.0224,0.0225,0.0226,0.026,0.0264,0.0268,0,0,0,0,0,0,0.0136,0.0155,0.0155,0.017,0.018,0.0192,0.0199,0.0201,0.0207,0.0207,0.0205,0.0205,0.0219,0.0213,0.0209,0.0233,0.0217,0.0218,0.0243,0.0247,0.025,0.0257,0.0203,0,0,0,0,0,0.0138,0.0152,0.0164,0.0176,0.0182,0.019,0.0196,0.0201,0.0207,0.021,0.0215,0.0217,0.0224,0.0227,0.0232,0.0244,0.0243,0.0255,0.0258,0.0261,0.0267,0.0278,0.0284,0.0228,0.0228,0.0228,0,0,0.0137,0.015,0.0157,0.0176,0.0184,0.0201,0.0194,0.0207,0.0221,0.021,0.023,0.023,0.0229,0.0246,0.0251,0.0243,0.0275,0.0262,0.0265,0.0269,0.028,0.0285,0.029,0.0229,0.0229,0.0229,0,0,0.0148,0.0157,0.0173,0.0185,0.02,0.0209,0.0213,0.0228,0.0235,0.025,0.0248,0.0257,0.0265,0.0273,0.0275,0.0297,0.0292,0.0297,0.0321,0.0332,0.0337,0.0341,0.0345,0.0349,0.0298,0.0298,0.0298,0,0.0147,0.0171,0.0179,0.0198,0.0212,0.0214,0.0234,0.0243,0.0259,0.027,0.026,0.0283,0.028,0.0305,0.0311,0.0306,0.0308,0.0308,0.0338,0.0342,0.0345,0.0348,0.0352,0.03,0.03,0.03,0.03,0,0.0171,0.019,0.0201,0.0229,0.0243,0.0261,0.0275,0.029,0.0296,0.0305,0.0328,0.0326,0.0341,0.034,0.0332,0.0361,0.0352,0.0342,0.033,0.0353,0.0354,0.0358,0.0303,0.0302,0.0302,0.0301,0,0,0.0173,0.0211,0.0216,0.0237,0.0263,0.0281,0.0305,0.0332,0.0355,0.0361,0.0393,0.0396,0.0396,0.0398,0.0392,0.0398,0.0422,0.0382,0.0382,0.039,0.0444,0.0429,0.0432,0.0419,0.042,0.0421,0.0434,0,0.0191,0.0233,0.0248,0.029,0.0314,0.0328,0.0354,0.0377,0.0391,0.0422,0.0421,0.0447,0.0417,0.0432,0.0432,0.0433,0.0434,0.0419,0.0417,0.0417,0.0404,0.0436,0.0431,0.0442,0.0438,0.0438,0.0439,0,0.0213,0.0241,0.0283,0.0331,0.0342,0.0367,0.0414,0.0438,0.0472,0.0484,0.0502,0.0505,0.0525,0.0492,0.0497,0.049,0.047,0.0458,0.0458,0.0435,0.0409,0.0418,0.0449,0.0445,0.0444,0.0444,0.0444,0,0.0221,0.0269,0.0306,0.0321,0.037,0.0395,0.0423,0.0459,0.0493,0.0531,0.0565,0.057,0.06,0.0571,0.0543,0.0527,0.0541,0.0517,0.048,0.0478,0.0469,0.0465,0.0514,0.0514,0.0514,0.0514,0.0514,0,0.024,0.0271,0.0314,0.0336,0.0387,0.0414,0.0471,0.0495,0.0546,0.0607,0.0603,0.0654,0.0623,0.0626,0.0573,0.0545,0.0566,0.0494,0.0487,0.048,0.0477,0.0472,0.0467,0.0514,0.0514,0.0514,0.0514,0,0.0245,0.0271,0.0319,0.0373,0.0394,0.0432,0.0508,0.0554,0.0593,0.0676,0.0698,0.0737,0.0747,0.0695,0.0666,0.0604,0.0562,0.054,0.053,0.0521,0.048,0.0477,0.0508,0.0508,0.0508,0.0507,0.0507,0,0.0252,0.0275,0.0342,0.0378,0.0406,0.0467,0.0519,0.0573,0.0629,0.0734,0.0783,0.0822,0.0856,0.0795,0.0701,0.061,0.0581,0.053,0.0495,0.0494,0.0483,0.048,0.0477,0.0496,0.0496,0.0495,0.0495,0,0.0264,0.0286,0.0327,0.0399,0.0459,0.0531,0.0607,0.066,0.0745,0.0826,0.0931,0.0966,0.092,0.0843,0.071,0.0635,0.0542,0.0523,0.0545,0.0493,0.0482,0.0471,0.0469,0.0493,0.0494,0.0494,0.0494,0.0494,0.0274,0.0303,0.0358,0.0428,0.0501,0.0593,0.0659,0.0757,0.0867,0.0989,0.1014,0.1057,0.0962,0.0794,0.0676,0.0541,0.0557,0.0484,0.0485,0.0486,0.0478,0.0466,0.0473,0.0473,0.0473,0.0473,0.0473,0,0.0288,0.0327,0.0387,0.0475,0.0555,0.0596,0.0721,0.0797,0.0941,0.1035,0.1115,0.1004,0.0915,0.0785,0.0597,0.049,0.047,0.043,0.0433,0.0436,0.0439,0.0427,0.0409,0.0408,0.0408,0.0407,0,0,0.03,0.0352,0.0383,0.0504,0.0573,0.0687,0.0764,0.0891,0.0976,0.1075,0.1092,0.1097,0.0949,0.079,0.0647,0.0532,0.0503,0.0496,0.0561,0.0586,0.0589,0.0485,0.0473,0,0,0,0,0]}],[{"header":{"parameterUnit":"m.s-1","parameterCategory":2,"la1":30.2991,"la2":30.254,"lo1":-89.0895,"lo2":-89.0444,"dy":0.0017,"dx":0.0017,"nx":28,"ny":28,"refTime":"2024-07-04T09:00:00:Z","depth":"4","parameterNumber":2,"parameterNumberName":"U-component_of_CURRENTS"},"data":[0,0,0,0,0,0,0,0,0,0,0,0,0,0,0,0,0,0,0,0,0,0,0,0,0,0,0,0,0,0,0,0,0,0,0,0,0,0,0,0,0,0,0,0,0,0,0,0,0,0,0,0,0,0,0,0,0,0,0.0792,0.0792,0,0.0799,0.0799,0.0799,0.0828,0.0829,0.083,0.083,0.0883,0.0884,0.0884,0,0,0,0,0,0,0,0,0,0,0,0,0,0.081,0.081,0.0792,0.0792,0.0793,0.0799,0.0799,0.0799,0.0828,0.0829,0.083,0.0831,0.0883,0.0883,0.0884,0,0,0,0,0,0,0,0,0,0,0,0,0,0.0807,0.081,0.0792,0.0809,0.0811,0.0799,0.0799,0.0799,0.0828,0.0829,0.083,0.0831,0.0882,0.0883,0.0884,0.0865,0,0,0.0887,0.0888,0,0,0,0,0,0,0,0,0.0807,0.0806,0.0806,0.0808,0.081,0.0815,0.0825,0.0824,0.0827,0.082,0.0831,0.0832,0.0865,0.0867,0.0863,0.0867,0.087,0.0887,0.0888,0.0888,0.0888,0,0,0,0,0,0,0,0.0807,0.0806,0.0793,0.0807,0.0809,0.0818,0.0819,0.0824,0.0835,0.082,0.0823,0.0826,0.0866,0.0862,0.0864,0.0871,0.0887,0.0888,0.0889,0.0889,0.0954,0.0955,0,0,0,0,0,0,0.0808,0.0806,0.0793,0.0794,0.0813,0.0817,0.0818,0.0811,0.0834,0.0838,0.0825,0.0827,0.0859,0.0863,0.0866,0.0921,0.0888,0.0889,0.089,0.0952,0.0954,0.0955,0,0,0,0,0,0,0.0808,0.0806,0.0793,0.0802,0.0801,0.0816,0.0808,0.081,0.0833,0.0837,0.0842,0.0848,0.0861,0.0865,0.0898,0.092,0.0889,0.089,0.0951,0.0953,0.0954,0.0981,0,0,0,0,0,0,0.0808,0.0806,0.0813,0.0801,0.0801,0.0805,0.0807,0.081,0.0832,0.0836,0.0858,0.0863,0.0862,0.0897,0.0899,0.0921,0.0891,0.095,0.0952,0.0954,0.0979,0.0984,0.0988,0,0,0,0,0,0.0808,0.081,0.0813,0.0813,0.0806,0.0806,0.0807,0.082,0.0833,0.0845,0.0864,0.0864,0.0912,0.0898,0.09,0.0924,0.0949,0.0951,0.0954,0.0977,0.0983,0.0987,0,0,0,0,0,0,0.0826,0.0813,0.0816,0.0816,0.0821,0.0812,0.0827,0.0833,0.0855,0.087,0.0873,0.0879,0.0917,0.0917,0.0902,0.095,0.0932,0.0935,0.0949,0.0954,0.0959,0.0967,0.0892,0,0,0,0,0,0.0831,0.083,0.0822,0.0827,0.083,0.0833,0.084,0.0849,0.086,0.0872,0.0887,0.0907,0.0922,0.0938,0.095,0.0973,0.0981,0.0993,0.0997,0.1001,0.1011,0.1039,0.1046,0.0964,0.0964,0.0964,0,0,0.084,0.0834,0.0835,0.0832,0.0837,0.0841,0.0841,0.0859,0.0873,0.0874,0.091,0.0923,0.0933,0.0961,0.0978,0.0969,0.1028,0.1004,0.1007,0.1015,0.1042,0.105,0.1057,0.0965,0.0965,0.0965,0,0,0.0849,0.0852,0.0853,0.0857,0.0869,0.0868,0.0879,0.0886,0.0905,0.0933,0.094,0.097,0.0994,0.1004,0.1011,0.1048,0.105,0.1056,0.1086,0.1113,0.112,0.1126,0.1143,0.115,0.1059,0.1059,0.1059,0,0.0864,0.0856,0.0857,0.0861,0.0869,0.0882,0.089,0.0905,0.0927,0.0941,0.0957,0.1,0.1013,0.1039,0.106,0.1058,0.1072,0.1062,0.1119,0.1125,0.1131,0.1146,0.1154,0.1061,0.1061,0.106,0.106,0,0.0863,0.087,0.0875,0.0879,0.089,0.0902,0.0917,0.0944,0.0971,0.098,0.1026,0.1047,0.1073,0.1084,0.1088,0.1134,0.1129,0.1119,0.1102,0.1141,0.1155,0.1162,0.1063,0.1063,0.1062,0.1062,0,0,0.0858,0.0871,0.0875,0.088,0.0902,0.0905,0.0941,0.0962,0.0985,0.1025,0.1053,0.1098,0.1115,0.1126,0.1136,0.1168,0.1224,0.1171,0.1171,0.1183,0.1285,0.1155,0.115,0.1226,0.1228,0.1229,0.1276,0,0.086,0.0867,0.0876,0.0892,0.0895,0.0922,0.0947,0.0975,0.1009,0.1042,0.1078,0.1113,0.1128,0.1153,0.1187,0.1215,0.1247,0.1212,0.125,0.1251,0.1127,0.1156,0.1234,0.1282,0.1283,0.1285,0.1286,0,0.0848,0.0855,0.087,0.0889,0.0895,0.0914,0.0956,0.0982,0.103,0.1062,0.1107,0.1131,0.119,0.1196,0.1273,0.1253,0.128,0.1299,0.1301,0.1176,0.1135,0.1238,0.1299,0.1298,0.1297,0.1296,0.1296,0,0.0826,0.0846,0.0859,0.0867,0.0896,0.092,0.0945,0.0992,0.1015,0.1083,0.1108,0.1169,0.1213,0.1261,0.1305,0.1303,0.1375,0.1367,0.1273,0.1264,0.1356,0.1349,0.1422,0.1422,0.1422,0.1422,0.1422,0,0.0804,0.0815,0.0855,0.086,0.0882,0.0912,0.0948,0.0986,0.1035,0.1055,0.1122,0.1147,0.1239,0.1279,0.1314,0.1308,0.1383,0.1283,0.1268,0.1365,0.1359,0.1361,0.1353,0.1424,0.1423,0.1423,0.1423,0,0.077,0.0797,0.0811,0.0854,0.0872,0.0891,0.0944,0.0958,0.1024,0.1057,0.1082,0.1153,0.1208,0.1264,0.134,0.1305,0.1319,0.1298,0.1396,0.1385,0.1192,0.1185,0.1201,0.1197,0.1193,0.119,0.1188,0,0.0747,0.0754,0.0805,0.0817,0.0841,0.0879,0.0895,0.0953,0.0962,0.1044,0.104,0.1117,0.1158,0.1161,0.1229,0.1262,0.1251,0.1242,0.1223,0.1186,0.117,0.1169,0.1168,0.1182,0.1181,0.118,0.1179,0,0.0704,0.0736,0.075,0.0781,0.0804,0.0814,0.0843,0.0836,0.0896,0.0969,0.0981,0.1004,0.105,0.1096,0.1121,0.1145,0.1237,0.1205,0.1213,0.1195,0.1163,0.1151,0.1154,0.1167,0.1169,0.117,0.117,0,0.0677,0.0678,0.071,0.0728,0.075,0.0729,0.0753,0.0757,0.0776,0.0859,0.0865,0.0951,0.1039,0.1033,0.1057,0.1063,0.1054,0.1018,0.1036,0.105,0.0975,0.0911,0.0827,0,0,0,0,0,0.0647,0.064,0.065,0.065,0.0665,0.0683,0.0701,0.0722,0.0779,0.076,0.0809,0.0848,0.088,0.0921,0.0899,0.0981,0.1051,0.0947,0.1017,0.1098,0.1113,0.1036,0,0,0,0,0,0,0.0621,0.0633,0.0629,0.0584,0.0573,0.0572,0.0582,0.062,0.0607,0.0687,0.0714,0.0787,0.0839,0.0902,0.0888,0.0899,0.0917,0.1004,0.1001,0.109,0.1103,0.1115,0.1041,0,0,0,0,0]},{"header":{"parameterUnit":"m.s-1","parameterCategory":2,"la1":30.2991,"la2":30.254,"lo1":-89.0895,"lo2":-89.0444,"dy":0.0017,"dx":0.0017,"nx":28,"ny":28,"refTime":"2024-07-04T09:00:00:Z","depth":"4","parameterNumber":3,"parameterNumberName":"V-component_of_CURRENTS"},"data":[0,0,0,0,0,0,0,0,0,0,0,0,0,0,0,0,0,0,0,0,0,0,0,0,0,0,0,0,0,0,0,0,0,0,0,0,0,0,0,0,0,0,0,0,0,0,0,0,0,0,0,0,0,0,0,0,0,0,0.0075,0.0075,0,0.0082,0.0082,0.0082,0.0084,0.0084,0.0084,0.0084,0.0094,0.0094,0.0094,0,0,0,0,0,0,0,0,0,0,0,0,0,0.0052,0.0052,0.0075,0.0075,0.0075,0.0082,0.0082,0.0082,0.0084,0.0084,0.0084,0.0084,0.0094,0.0094,0.0094,0,0,0,0,0,0,0,0,0,0,0,0,0,0.0061,0.0052,0.0075,0.0077,0.0077,0.0082,0.0082,0.0082,0.0084,0.0084,0.0084,0.0084,0.0094,0.0094,0.0095,0.0098,0,0,0.0096,0.0096,0,0,0,0,0,0,0,0,0.006,0.0061,0.0077,0.0077,0.0077,0.0082,0.0078,0.0088,0.0084,0.0081,0.0084,0.0084,0.009,0.0091,0.0092,0.0099,0.0099,0.0096,0.0096,0.0096,0.0096,0,0,0,0,0,0,0,0.0059,0.0061,0.0078,0.0077,0.0077,0.0074,0.0075,0.008,0.0086,0.0082,0.0082,0.0083,0.0091,0.0092,0.0093,0.0099,0.0096,0.0096,0.0097,0.0097,0.0112,0.0113,0,0,0,0,0,0,0.006,0.0061,0.0078,0.0078,0.0068,0.0074,0.0076,0.0081,0.0086,0.0087,0.0083,0.0083,0.0091,0.0092,0.0093,0.0112,0.0096,0.0097,0.0097,0.0112,0.0113,0.0113,0,0,0,0,0,0,0.0059,0.0061,0.0077,0.0069,0.0071,0.0075,0.008,0.0081,0.0084,0.0087,0.0088,0.0086,0.0091,0.0092,0.01,0.0112,0.0097,0.0097,0.0112,0.0112,0.0113,0.014,0,0,0,0,0,0,0.0058,0.0061,0.0065,0.0069,0.0072,0.0084,0.008,0.0081,0.0085,0.0085,0.009,0.009,0.0091,0.0099,0.01,0.0112,0.0098,0.0112,0.0112,0.0113,0.0139,0.0141,0.0143,0,0,0,0,0,0.0058,0.0065,0.0065,0.0067,0.0076,0.0084,0.0085,0.0087,0.0085,0.0089,0.0092,0.009,0.0102,0.01,0.0101,0.0113,0.0112,0.0112,0.0112,0.0138,0.0141,0.0143,0,0,0,0,0,0,0.0056,0.0066,0.0066,0.0075,0.008,0.0084,0.0089,0.0089,0.0093,0.0094,0.0094,0.0095,0.0105,0.0103,0.0101,0.0117,0.0106,0.0106,0.0125,0.0128,0.013,0.0138,0.0098,0,0,0,0,0,0.0057,0.0067,0.0072,0.008,0.0083,0.0085,0.0088,0.009,0.0095,0.0097,0.01,0.0103,0.0107,0.0113,0.0114,0.0126,0.0124,0.0132,0.0134,0.0136,0.0143,0.0148,0.0151,0.0114,0.0114,0.0114,0,0,0.0058,0.0066,0.007,0.008,0.0084,0.0094,0.0087,0.0095,0.0105,0.0098,0.0112,0.011,0.011,0.0122,0.0126,0.0124,0.0145,0.0137,0.0138,0.0145,0.0149,0.0152,0.0156,0.0114,0.0114,0.0114,0,0,0.0067,0.0072,0.0082,0.0089,0.0097,0.0101,0.0104,0.011,0.0115,0.0126,0.0122,0.0129,0.0134,0.0142,0.0144,0.0158,0.0153,0.0155,0.0179,0.0183,0.0187,0.0189,0.019,0.0193,0.016,0.016,0.016,0,0.0067,0.0083,0.0086,0.0098,0.0107,0.0105,0.0119,0.0124,0.0133,0.0142,0.0133,0.0148,0.0146,0.0167,0.017,0.0165,0.0163,0.0171,0.0187,0.019,0.0192,0.0192,0.0195,0.0161,0.0161,0.0161,0.0161,0,0.0083,0.0097,0.0104,0.0121,0.013,0.0142,0.015,0.016,0.0163,0.0169,0.0186,0.0183,0.0196,0.0192,0.0186,0.0206,0.0196,0.0187,0.0183,0.0198,0.0196,0.0199,0.0163,0.0163,0.0162,0.0162,0,0,0.0085,0.0111,0.0114,0.0128,0.0145,0.0156,0.0175,0.0195,0.0214,0.0215,0.0241,0.0241,0.0241,0.0243,0.0237,0.024,0.0252,0.0223,0.0222,0.0228,0.0259,0.0239,0.024,0.0244,0.0245,0.0245,0.025,0,0.0097,0.0126,0.0137,0.0166,0.0181,0.0193,0.0213,0.0231,0.0243,0.0266,0.0266,0.0285,0.026,0.0271,0.0269,0.0259,0.0259,0.0251,0.0239,0.0239,0.0224,0.0243,0.0247,0.0251,0.0252,0.0252,0.0252,0,0.011,0.013,0.0159,0.0196,0.0205,0.0224,0.0263,0.0282,0.031,0.0321,0.0337,0.0336,0.0349,0.0321,0.0314,0.0309,0.0288,0.0272,0.0272,0.0248,0.0225,0.0233,0.0257,0.0256,0.0256,0.0256,0.0255,0,0.0112,0.0147,0.0174,0.0186,0.0223,0.0245,0.0269,0.0301,0.0331,0.0362,0.0388,0.039,0.0406,0.0379,0.0345,0.0333,0.033,0.031,0.0272,0.027,0.0273,0.027,0.0303,0.0303,0.0303,0.0303,0.0303,0,0.0122,0.0144,0.0179,0.0195,0.0237,0.0259,0.0309,0.0331,0.0377,0.0424,0.042,0.0451,0.0421,0.0414,0.0368,0.0331,0.0349,0.0283,0.0274,0.0284,0.0282,0.0275,0.0272,0.0303,0.0303,0.0303,0.0303,0,0.0119,0.014,0.0175,0.0219,0.0239,0.027,0.034,0.0381,0.0415,0.0479,0.0495,0.0509,0.0498,0.0459,0.0421,0.0371,0.0329,0.0308,0.0328,0.0319,0.0259,0.0257,0.0271,0.0271,0.027,0.027,0.027,0,0.0119,0.0135,0.019,0.0221,0.0244,0.0298,0.0345,0.0396,0.0446,0.0512,0.0546,0.0556,0.0555,0.0489,0.0434,0.0355,0.0332,0.0307,0.0275,0.0269,0.0258,0.0257,0.0255,0.0269,0.0269,0.0269,0.0269,0,0.012,0.0139,0.0171,0.0233,0.0285,0.0349,0.0417,0.0455,0.0525,0.0554,0.0593,0.0568,0.0555,0.0491,0.0435,0.0371,0.0321,0.0301,0.0301,0.0272,0.0266,0.0255,0.0255,0.0267,0.0267,0.0267,0.0267,0,0.0122,0.0144,0.0192,0.025,0.0316,0.039,0.0424,0.049,0.054,0.0607,0.0615,0.0598,0.0592,0.0501,0.0445,0.0386,0.0358,0.0318,0.0317,0.0318,0.032,0.0318,0.0336,0,0,0,0,0,0.0128,0.0161,0.021,0.0282,0.0348,0.0393,0.0475,0.0508,0.0569,0.0599,0.061,0.0594,0.0524,0.0493,0.043,0.0423,0.0341,0.0344,0.0294,0.0258,0.026,0.0251,0,0,0,0,0,0,0.0137,0.018,0.0209,0.0302,0.0354,0.0439,0.0493,0.0534,0.055,0.059,0.0552,0.0553,0.0482,0.0556,0.042,0.0404,0.0357,0.0318,0.0316,0.0257,0.0258,0.026,0.0252,0,0,0,0,0]}]]